timestamp,surface_pressure_avg,surface_temp_avg,battery_voltage,lat,long
2022-12-02 00:09:00+00:00,250.8097,5.3,12.65,47.84626,-54.09684
2022-12-02 00:19:00+00:00,251.6581,5.3,12.65,47.84626,-54.09684
2022-12-02 00:29:00+00:00,257.3914,5.3,12.65,47.84626,-54.09684
2022-12-02 00:39:00+00:00,252.0514,5.3,12.65,47.84626,-54.09684
2022-12-02 00:49:00+00:00,247.5131,5.3,12.65,47.84626,-54.09684
2022-12-02 00:59:00+00:00,262.9581,5.34,12.65,47.84626,-54.09684
2022-12-02 01:09:00+00:00,270.7047,5.36,12.65,47.84626,-54.09684
2022-12-02 01:19:00+00:00,259.3314,5.31,12.65,47.84626,-54.09684
2022-12-02 01:29:00+00:00,257.5614,5.3,12.65,47.84626,-54.09684
2022-12-02 01:39:00+00:00,271.7931,5.37,12.65,47.84626,-54.09684
2022-12-02 01:49:00+00:00,267.4547,5.4,12.65,47.84626,-54.09684
2022-12-02 01:59:00+00:00,245.9664,5.37,12.65,47.84626,-54.09684
2022-12-02 02:09:00+00:00,238.0931,5.36,12.65,47.84626,-54.09684
2022-12-02 02:19:01+00:00,234.2381,5.38,12.65,47.84626,-54.09684
2022-12-02 02:29:01+00:00,229.2598,5.38,12.65,47.84626,-54.09684
2022-12-02 02:39:01+00:00,225.5864,5.38,12.65,47.84626,-54.09684
2022-12-02 02:49:01+00:00,224.0798,5.38,12.65,47.84626,-54.09684
2022-12-02 02:59:01+00:00,225.6631,5.39,12.65,47.84626,-54.09684
2022-12-02 03:09:01+00:00,221.5397,5.38,12.65,47.84626,-54.09684
2022-12-02 03:19:00+00:00,219.9681,5.39,12.65,47.84626,-54.09684
2022-12-02 03:29:00+00:00,229.8598,5.39,12.65,47.84626,-54.09684
2022-12-02 03:39:00+00:00,235.5748,5.4,12.65,47.84626,-54.09684
2022-12-02 03:49:00+00:00,236.4315,5.4,12.65,47.84626,-54.09684
2022-12-02 03:59:00+00:00,240.9948,5.4,12.65,47.84626,-54.09684
2022-12-02 04:09:00+00:00,241.6114,5.4,12.65,47.84626,-54.09684
2022-12-02 04:19:00+00:00,247.0164,5.4,12.65,47.84626,-54.09684
2022-12-02 04:29:00+00:00,263.5197,5.4,12.65,47.84626,-54.09684
2022-12-02 04:39:00+00:00,275.908,5.4,12.65,47.84626,-54.09684
2022-12-02 04:49:00+00:00,269.5847,5.4,12.65,47.84626,-54.09684
2022-12-02 04:59:00+00:00,271.9964,5.4,12.65,47.84626,-54.09684
2022-12-02 05:09:00+00:00,287.428,5.4,12.65,47.84626,-54.09684
2022-12-02 05:19:00+00:00,289.3297,5.4,12.65,47.84626,-54.09684
2022-12-02 05:29:00+00:00,291.0081,5.4,12.65,47.84626,-54.09684
2022-12-02 05:39:00+00:00,301.7347,5.4,12.65,47.84626,-54.09684
2022-12-02 05:49:00+00:00,306.858,5.4,12.65,47.84626,-54.09684
2022-12-02 05:59:00+00:00,309.433,5.4,12.65,47.84626,-54.09684
2022-12-02 06:09:00+00:00,313.718,5.4,12.65,47.84626,-54.09684
2022-12-02 06:19:00+00:00,316.9514,5.4,12.65,47.84626,-54.09684
2022-12-02 06:29:00+00:00,320.3214,5.4,12.65,47.84626,-54.09684
2022-12-02 06:39:00+00:00,321.733,5.4,12.65,47.84626,-54.09684
2022-12-02 06:49:00+00:00,319.423,5.4,12.65,47.84626,-54.09684
2022-12-02 06:59:00+00:00,324.6397,5.38,12.65,47.84626,-54.09684
2022-12-02 07:09:00+00:00,328.8113,5.36,12.65,47.84626,-54.09684
2022-12-02 07:19:00+00:00,326.278,5.36,12.57,47.84626,-54.09684
2022-12-02 07:29:00+00:00,333.5313,5.37,12.57,47.84626,-54.09684
2022-12-02 07:39:00+00:00,335.2797,5.35,12.57,47.84626,-54.09684
2022-12-02 07:49:00+00:00,331.653,5.3,12.57,47.84626,-54.09684
2022-12-02 07:59:00+00:00,320.818,5.3,12.57,47.84626,-54.09684
2022-12-02 08:09:00+00:00,316.3829,5.3,12.57,47.84626,-54.09684
2022-12-02 08:19:00+00:00,306.7297,5.3,12.57,47.84626,-54.09684
2022-12-02 08:29:00+00:00,296.5881,5.3,12.57,47.84626,-54.09684
2022-12-02 08:39:00+00:00,292.3713,5.3,12.57,47.84626,-54.09684
2022-12-02 08:49:00+00:00,295.2231,5.3,12.57,47.84626,-54.09684
2022-12-02 08:59:00+00:00,279.1931,5.29,12.57,47.84626,-54.09684
2022-12-02 09:09:00+00:00,260.5464,5.28,12.57,47.84626,-54.09684
2022-12-02 09:19:01+00:00,259.2764,5.29,12.57,47.84626,-54.09684
2022-12-02 09:29:01+00:00,259.7497,5.3,12.57,47.84626,-54.09684
2022-12-02 09:39:01+00:00,245.0348,5.29,12.57,47.84626,-54.09684
2022-12-02 09:49:01+00:00,229.0764,5.3,12.57,47.84626,-54.09684
2022-12-02 09:59:01+00:00,235.9615,5.3,12.57,47.84626,-54.09684
2022-12-02 10:09:01+00:00,240.0481,5.3,12.57,47.84626,-54.09684
2022-12-02 10:19:00+00:00,226.3914,5.3,12.57,47.84626,-54.09684
2022-12-02 10:29:00+00:00,213.6331,5.3,12.57,47.84626,-54.09684
2022-12-02 10:39:00+00:00,218.0881,5.3,12.57,47.84626,-54.09684
2022-12-02 10:49:00+00:00,220.4414,5.3,12.57,47.84626,-54.09684
2022-12-02 10:59:00+00:00,218.7981,5.3,12.57,47.84626,-54.09684
2022-12-02 11:09:00+00:00,220.983,5.3,12.57,47.84626,-54.09684
2022-12-02 11:19:00+00:00,227.1614,5.3,12.57,47.84626,-54.09684
2022-12-02 11:29:00+00:00,219.8331,5.3,12.57,47.84626,-54.09684
2022-12-02 11:39:00+00:00,207.4247,5.2,12.57,47.84626,-54.09684
2022-12-02 11:49:00+00:00,205.3564,5.09,12.57,47.84626,-54.09684
2022-12-02 11:59:00+00:00,209.8465,5.0,12.57,47.84626,-54.09684
2022-12-02 12:09:00+00:00,204.2998,5.0,12.57,47.84626,-54.09684
2022-12-02 12:19:00+00:00,198.2065,5.0,13.84,47.84626,-54.09684
2022-12-02 12:29:00+00:00,198.6114,5.0,13.84,47.84626,-54.09684
2022-12-02 12:39:00+00:00,198.9214,5.0,13.84,47.84626,-54.09684
2022-12-02 12:49:00+00:00,198.9414,5.0,13.84,47.84626,-54.09684
2022-12-02 12:59:00+00:00,200.7331,5.04,13.84,47.84626,-54.09684
2022-12-02 13:09:00+00:00,196.8781,5.09,13.84,47.84626,-54.09684
2022-12-02 13:19:00+00:00,194.4297,5.1,14.4,47.84626,-54.09684
2022-12-02 13:29:00+00:00,205.1631,5.1,14.4,47.84626,-54.09684
2022-12-02 13:39:00+00:00,210.563,5.17,14.4,47.84626,-54.09684
2022-12-02 13:49:00+00:00,204.8515,5.2,14.4,47.84626,-54.09684
2022-12-02 13:59:00+00:00,210.2481,5.18,14.4,47.84626,-54.09684
2022-12-02 14:09:00+00:00,220.8131,5.13,14.4,47.84626,-54.09684
2022-12-02 14:19:00+00:00,215.1231,5.17,14.88,47.84626,-54.09684
2022-12-02 14:29:00+00:00,213.1848,5.18,14.88,47.84626,-54.09684
2022-12-02 14:39:00+00:00,223.0031,5.18,14.88,47.84626,-54.09684
2022-12-02 14:49:00+00:00,225.2297,5.2,14.88,47.84626,-54.09684
2022-12-02 14:59:00+00:00,222.0781,5.2,14.88,47.84626,-54.09684
2022-12-02 15:09:00+00:00,226.1781,5.2,14.88,47.84626,-54.09684
2022-12-02 15:19:01+00:00,233.3197,5.21,14.88,47.84626,-54.09684
2022-12-02 15:29:01+00:00,232.5797,5.26,14.88,47.84626,-54.09684
2022-12-02 15:39:01+00:00,232.0381,5.28,14.88,47.84626,-54.09684
2022-12-02 15:49:01+00:00,241.7314,5.29,14.88,47.84626,-54.09684
2022-12-02 15:59:01+00:00,248.2881,5.3,14.88,47.84626,-54.09684
2022-12-02 16:09:01+00:00,247.8064,5.3,14.88,47.84626,-54.09684
2022-12-02 16:19:00+00:00,253.2231,5.3,13.84,47.84626,-54.09684
2022-12-02 16:29:00+00:00,262.6931,5.3,13.84,47.84626,-54.09684
2022-12-02 16:39:00+00:00,273.7198,5.3,13.84,47.84626,-54.09684
2022-12-02 16:49:00+00:00,280.4697,5.3,13.84,47.84626,-54.09684
2022-12-02 16:59:00+00:00,289.4414,5.3,13.84,47.84626,-54.09684
2022-12-02 17:09:00+00:00,301.5931,5.28,13.84,47.84626,-54.09684
2022-12-02 17:19:00+00:00,312.4213,5.29,13.76,47.84626,-54.09684
2022-12-02 17:29:00+00:00,317.873,5.27,13.76,47.84626,-54.09684
2022-12-02 17:39:00+00:00,323.9096,5.29,13.76,47.84626,-54.09684
2022-12-02 17:49:00+00:00,332.8146,5.3,13.76,47.84626,-54.09684
2022-12-02 17:59:00+00:00,336.3230000000001,5.3,13.76,47.84626,-54.09684
2022-12-02 18:09:00+00:00,332.4996,5.3,13.76,47.84626,-54.09684
2022-12-02 18:19:00+00:00,337.2029,5.36,13.53,47.84626,-54.09684
2022-12-02 18:29:00+00:00,346.2796,5.38,13.53,47.84626,-54.09684
2022-12-02 18:39:00+00:00,343.723,5.36,13.53,47.84626,-54.09684
2022-12-02 18:49:00+00:00,341.0181,5.35,13.53,47.84626,-54.09684
2022-12-02 18:59:00+00:00,351.3112,5.36,13.53,47.84626,-54.09684
2022-12-02 19:09:00+00:00,356.86300000000006,5.3,13.53,47.84626,-54.09684
2022-12-02 19:19:00+00:00,345.413,5.28,12.97,47.84626,-54.09684
2022-12-02 19:29:00+00:00,340.098,5.3,12.97,47.84626,-54.09684
2022-12-02 19:39:00+00:00,353.9663,5.3,12.97,47.84626,-54.09684
2022-12-02 19:49:00+00:00,350.7979,5.26,12.97,47.84626,-54.09684
2022-12-02 19:59:00+00:00,334.8547,5.24,12.97,47.84626,-54.09684
2022-12-02 20:09:00+00:00,344.5646,5.28,12.97,47.84626,-54.09684
2022-12-02 20:19:00+00:00,355.1063,5.29,12.81,47.84626,-54.09684
2022-12-02 20:29:00+00:00,339.043,5.2,12.81,47.84626,-54.09684
2022-12-02 20:39:00+00:00,321.8347,5.23,12.81,47.84626,-54.09684
2022-12-02 20:49:00+00:00,337.8663,5.26,12.81,47.84626,-54.09684
2022-12-02 20:59:00+00:00,339.9012,5.24,12.81,47.84626,-54.09684
2022-12-02 21:09:00+00:00,315.3963,5.2,12.81,47.84626,-54.09684
2022-12-02 21:19:00+00:00,315.868,5.2,12.73,47.84626,-54.09684
2022-12-02 21:29:00+00:00,333.8846,5.2,12.73,47.84626,-54.09684
2022-12-02 21:39:00+00:00,317.2964,5.2,12.73,47.84626,-54.09684
2022-12-02 21:49:00+00:00,290.1463,5.2,12.73,47.84626,-54.09684
2022-12-02 21:59:00+00:00,303.8747,5.2,12.73,47.84626,-54.09684
2022-12-02 22:09:00+00:00,311.9713,5.2,12.73,47.84626,-54.09684
2022-12-02 22:19:00+00:00,285.6464,5.2,12.73,47.84626,-54.09684
2022-12-02 22:29:00+00:00,274.7014,5.2,12.73,47.84626,-54.09684
2022-12-02 22:39:00+00:00,291.8614,5.21,12.73,47.84626,-54.09684
2022-12-02 22:49:00+00:00,292.163,5.2,12.73,47.84626,-54.09684
2022-12-02 22:59:00+00:00,267.5314,5.2,12.73,47.84626,-54.09684
2022-12-02 23:09:00+00:00,267.0147,5.2,12.73,47.84626,-54.09684
2022-12-02 23:19:00+00:00,272.3864,5.2,12.73,47.84626,-54.09684
2022-12-02 23:29:00+00:00,262.4597,5.2,12.73,47.84626,-54.09684
2022-12-02 23:39:00+00:00,249.9347,5.29,12.73,47.84626,-54.09684
2022-12-02 23:49:00+00:00,254.2881,5.3,12.73,47.84626,-54.09684
2022-12-02 23:59:00+00:00,256.2964,5.3,12.73,47.84626,-54.09684
